Regional Weather Roundup
Issued by NWS Sioux Falls, SD

Home | Current Version | Previous Version | Text Only | Print | Product List | Glossary On
Versions: 1 2 3 4 5 6 7 8 9 10 11 12 13 14 15 16 17 18 19 20 21 22 23 24 25 26 27 28 29 30 31 32 33 34 35 36 37 38 39 40 41 42 43 44 45 46 47 48 49 50
000
ASUS43 KFSD 190110
RWRFSD

WEATHER ROUNDUP FOR SE SOUTH DAKOTA/SW MINNESOTA/NW IOWA
NATIONAL WEATHER SERVICE SIOUX FALLS SD
800 PM CDT WED APR 18 2018

NOTE: "FAIR" INDICATES FEW OR NO CLOUDS BELOW 12,000 FEET WITH NO
SIGNIFICANT WEATHER AND OR OBSTRUCTIONS TO VISIBILITY.


SDZ038>040-050-052>070-190200-
SOUTHEAST SOUTH DAKOTA

CITY           SKY/WX    TMP DP  RH WIND       PRES   REMARKS
BROOKINGS      CLOUDY    36  29  75 NW7       30.16R
CHAMBERLAIN    PTCLDY    41  39  93 NW8       30.21R
HURON          CLOUDY    40  30  67 N9        30.19R
MADISON        MOCLDY    36  36 100 W6        30.16R
MITCHELL       CLOUDY    38  32  79 NW13      30.19R
SIOUX FALLS    CLOUDY    34  30  85 W3        30.17R
WINNER         FAIR      38  32  79 W7        30.23R
YANKTON        MIX PCPN  37  34  87 N13       30.20R
$$

MNZ071-072-080-081-089-090-097-098-190200-
SOUTHWEST MINNESOTA

CITY           SKY/WX    TMP DP  RH WIND       PRES   REMARKS
FAIRMONT       FLURRIES  31  29  92 NW12      30.12R WCI  22
JACKSON        MIX PCPN  32  30  93 NW9       30.12R WCI  24
LUVERNE        CLOUDY    32  32 100 W7        30.16R WCI  26
MARSHALL       CLOUDY    33  28  81 W9        30.14R WCI  25
MONTEVIDEO     PTCLDY    37  27  65 N5        30.14R
PIPESTONE      PTCLDY   N/A N/A N/A NW7       30.14R
REDWOOD FALLS  CLOUDY    35  28  75 W7        30.13R WCI  29
TRACY          CLOUDY    34  29  82 W5        30.13R
WINDOM           N/A     32  19  59 CALM      30.13R
WORTHINGTON    MIX PCPN  32  30  92 W10       30.14R WCI  24
$$

IAZ001>003-012>014-020>022-031-032-NEZ013-014-SDZ071-190200-
NORTHWEST IOWA

CITY           SKY/WX    TMP DP  RH WIND       PRES   REMARKS
CHEROKEE       CLOUDY    33  32  95 NW8       30.15R WCI  26
DENISON        CLOUDY    34  32  93 NW10      30.15S WCI  26
ESTHERVILLE    CLOUDY    29  28  96 NW14      30.12R FOG     WCI  18
LE MARS        CLOUDY    34  32  93 N10       30.17R WCI  26
ORANGE CITY    CLOUDY    34  34 100 N7        30.16R WCI  28
SHELDON        PTCLDY    32  32 100 NW10      30.14R WCI  24
SIOUX CITY     CLOUDY    35  32  88 N13       30.18R WCI  26
SPENCER        CLOUDY    32  28  85 NW9       30.13R WCI  24
STORM LAKE     MOCLDY    32  30  93 N14       30.12R WCI  22
$$

ABBREVIATIONS USED IN REMARKS
   TC - TEMPERATURE IN CELSIUS
  WCI - WIND CHILL INDEX
   HX - HEAT INDEX
  VSB - VISIBILITY





USA.gov is the U.S. government's official web portal to all federal, state and local government web resources and services.